Regional Weather Roundup
Issued by NWS Cleveland, OH

Home | Current Version | Previous Version | Graphics & Text | Print | Product List | Glossary On
Versions: 1 2 3 4 5 6 7 8 9 10 11 12 13 14 15 16 17 18 19 20 21 22 23 24 25 26 27 28 29 30 31 32 33 34 35 36 37 38 39 40 41 42 43 44 45 46 47 48 49 50
623
ASUS41 KCLE 060610
RWRCLE
OHIO REGIONAL WEATHER ROUNDUP
NATIONAL WEATHER SERVICE WILMINGTON, OH
100 AM EST SAT FEB 06 2016

NOTE: "FAIR" INDICATES FEW OR NO CLOUDS BELOW 12,000 FEET WITH NO
SIGNIFICANT WEATHER AND/OR OBSTRUCTIONS TO VISIBILITY.

OHZ001>008-015>018-024>027-034-035-043-044-060700-
   NORTHWEST OHIO

CITY           SKY/WX    TMP DP  RH WIND       PRES   REMARKS
DEFIANCE       FAIR      30  24  78 W5        30.30S WCI  25
FINDLAY        FAIR      28  23  81 W8        30.29S WCI  20
TOLEDO EXPRESS FAIR      26  23  88 W5        30.29S WCI  20
TOLEDO EXEC    FAIR      28  22  78 SW8       30.29F WCI  20
LIMA           FAIR      26  22  84 W7        30.30S WCI  18
$$

OHZ009>014-019>023-028>033-038-089-060700-
   NORTHEAST OHIO

CITY           SKY/WX    TMP DP  RH WIND       PRES   REMARKS
CLE-HOPKINS    FAIR      32  19  58 SW8       30.29F WCI  25
CLE-LAKEFRONT  MOCLDY    36  19  50 S12       30.26F
CUY CO. ARPT   NOT AVBL
LORAIN-ELYRIA  FAIR      30  22  72 SW8       30.27F WCI  22
ASHTABULA      CLOUDY    30  21  69 S8        30.27F WCI  22
AKRON-CANTON   CLOUDY    32  19  58 S10       30.27F WCI  24
WOOSTER        CLOUDY    31  21  66 S7        30.27F WCI  24
MANSFIELD      FAIR      30  21  69 SW7       30.26F WCI  23
YOUNGSTOWN     CLOUDY    30  18  60 S7        30.27F WCI  23
$$

OHZ042-051>053-060>062-070>072-077>081-060700-
  SOUTHWEST OHIO

CITY           SKY/WX    TMP DP  RH WIND       PRES   REMARKS
CINC-COVINGTON FAIR      29  24  82 NW5       30.33S WCI  24
CINC-LUNKEN    FAIR      28  24  85 CALM      30.36S
HAMILTON       FAIR      25  22  88 CALM      30.35S
DAYTON         FAIR      27  24  89 W3        30.32R
WRIGHT-PAT AFB FAIR      24  22  90 W2        30.31S
DAYTON GENERAL FAIR      28  21  75 CALM      30.31S
WILMINGTON     FAIR      28  20  71 SW5       30.31S WCI  23
$$

OHZ036-037-039>041-045>050-054>059-063>069-073>076-082>088-060700-
  CENTRAL AND SOUTHEAST OHIO

CITY           SKY/WX    TMP DP  RH WIND       PRES   REMARKS
COLUMBUS       FAIR      31  17  56 SW3       30.31R
OSU AIRPORT    FAIR      30  21  69 W6        30.30S WCI  24
BOLTON FIELD   FAIR      30  22  74 S3        30.31S
RICKENBACK AFB FAIR      32  20  62 W5        30.31R WCI  27
NEWARK         MOCLDY    34  18  52 S9        30.30S WCI  27
MARION         MOCLDY    29  22  75 W5        30.30R WCI  24
LANCASTER      FAIR      34  17  50 S7        30.31F WCI  28
ZANESVILLE     CLOUDY    34  18  52 S7        30.31F WCI  28
NEW PHILLY     CLOUDY    33  18  53 S7        30.31F WCI  27
$$




USA.gov is the U.S. government's official web portal to all federal, state and local government web resources and services.